Location: Blue Moon Observatory
(43.0710°N, 82.8810°W)
Time: 12:06:50
(UTC-05:00)

Tiangong 2 - Visible Passes

Search period start: 21 February 2018 00:00
Search period end: 03 March 2018 00:00
Orbit: 384 x 388 km, 42.8° (Epoch: 21 February)

Date Brightness Start Highest point End Pass type
(mag) Time Alt. Az. Time Alt. Az. Time Alt. Az.
21 Feb 2.3 18:59:41 10° W 19:02:41 38° SSW 19:05:40 10° SE visible
22 Feb 3.7 19:38:08 10° WSW 19:40:09 16° SSW 19:42:11 10° S visible
23 Feb 3.2 18:38:41 10° W 18:41:21 25° SSW 18:44:01 10° SSE visible
